Location: Gerlach
(40.6516°N, 119.3568°W)
Time: 14:42:59
(UTC-07:00)

A-11 Canister half - Pass Details

Date: 22 February 2024
Orbit: 1525 x 1683 km, 47.3° (Epoch: 21 April)

Event Time Altitude Azimuth Distance (km) Brightness Sun altitude
Rises 21:13:09 0° 233° (SW) 4,766 11.9 -40.3°
Reaches altitude 10° 21:16:15 10° 232° (SW) 3,763 11.2 -40.8°
Enters shadow 21:21:27 38° 227° (SW) 2,218 9.8 -41.7°
